Time,TemperatureF,DewpointF,PressureIn,WindDirection,WindDirectionDegrees,WindSpeedMPH,WindSpeedGustMPH,Humidity,HourlyPrecipIn,Conditions,Clouds,dailyrainin,SoftwareType,DateUTC
2013-05-06 00:01:00,57.3,55.0,29.98,NE,43,3.5,3.5,92,0.00,CLR,,0.00,WeatherDisplay:10.37,2013-05-06 04:01:00,
2013-05-06 00:06:00,57.3,55.0,29.98,NNW,335,1.1,1.1,92,0.00,CLR,,0.00,WeatherDisplay:10.37,2013-05-06 04:06:00,
2013-05-06 00:11:00,57.2,54.9,29.98,NW,326,2.3,2.3,92,0.00,CLR,,0.00,WeatherDisplay:10.37,2013-05-06 04:11:00,
2013-05-06 00:16:00,57.2,54.9,29.98,ESE,102,3.5,3.5,92,0.00,CLR,,0.00,WeatherDisplay:10.37,2013-05-06 04:16:00,
2013-05-06 00:21:00,57.2,54.9,29.99,SE,133,3.5,3.5,92,0.00,CLR,,0.00,WeatherDisplay:10.37,2013-05-06 04:21:00,
2013-05-06 00:26:00,57.1,54.8,29.99,East,89,5.8,5.8,92,0.00,CLR,,0.00,WeatherDisplay:10.37,2013-05-06 04:26:00,
2013-05-06 00:31:00,57.1,54.8,29.99,East,80,3.5,3.5,92,0.00,CLR,,0.00,WeatherDisplay:10.37,2013-05-06 04:31:00,
2013-05-06 00:36:00,57.1,54.8,29.99,North,353,2.3,2.3,92,0.00,CLR,,0.00,WeatherDisplay:10.37,2013-05-06 04:36:00,
2013-05-06 00:41:00,57.0,55.0,29.99,East,84,1.1,1.1,93,0.00,CLR,,0.00,WeatherDisplay:10.37,2013-05-06 04:41:00,
2013-05-06 00:46:00,57.0,55.0,29.99,NE,34,0.0,0.0,93,0.00,CLR,,0.00,WeatherDisplay:10.37,2013-05-06 04:46:00,
2013-05-06 00:51:00,56.9,54.9,29.99,NE,49,1.1,0.0,93,0.00,CLR,,0.00,WeatherDisplay:10.37,2013-05-06 04:51:00,
2013-05-06 00:56:00,56.9,54.9,29.98,North,5,1.1,1.1,93,0.00,CLR,,0.00,WeatherDisplay:10.37,2013-05-06 04:56:00,
2013-05-06 01:01:00,56.8,54.8,29.98,North,11,1.1,0.0,93,0.00,CLR,,0.00,WeatherDisplay:10.37,2013-05-06 05:01:00,
2013-05-06 01:06:00,56.8,54.8,29.98,ENE,71,2.3,2.3,93,0.00,CLR,,0.00,WeatherDisplay:10.37,2013-05-06 05:06:00,
2013-05-06 01:11:00,56.7,55.0,29.99,NNE,19,0.0,0.0,94,0.00,CLR,,0.00,WeatherDisplay:10.37,2013-05-06 05:11:00,
2013-05-06 01:16:00,56.6,54.9,29.99,North,9,1.1,1.1,94,0.00,CLR,,0.00,WeatherDisplay:10.37,2013-05-06 05:16:00,
2013-05-06 01:21:00,56.5,54.8,29.98,NNE,25,2.3,2.3,94,0.00,CLR,,0.00,WeatherDisplay:10.37,2013-05-06 05:21:00,
2013-05-06 01:26:00,56.5,54.8,29.98,East,91,2.0,2.0,94,0.00,CLR,,0.00,WeatherDisplay:10.37,2013-05-06 05:26:00,
2013-05-06 01:31:00,56.4,55.0,29.98,ENE,71,2.0,2.0,95,0.00,CLR,,0.00,WeatherDisplay:10.37,2013-05-06 05:31:00,
2013-05-06 01:36:00,56.3,54.9,29.98,East,98,2.0,2.0,95,0.00,CLR,,0.00,WeatherDisplay:10.37,2013-05-06 05:36:00,
2013-05-06 01:41:00,56.3,54.9,29.98,East,95,3.5,3.5,95,0.00,CLR,,0.00,WeatherDisplay:10.37,2013-05-06 05:41:00,
2013-05-06 01:46:00,56.2,54.8,29.97,ENE,57,0.0,0.0,95,0.00,CLR,,0.00,WeatherDisplay:10.37,2013-05-06 05:46:00,
2013-05-06 01:51:00,56.1,54.7,29.97,NNW,336,1.1,1.1,95,0.00,CLR,,0.00,WeatherDisplay:10.37,2013-05-06 05:51:00,
2013-05-06 01:56:00,56.1,54.7,29.97,NNW,338,1.1,1.1,95,0.00,CLR,,0.00,WeatherDisplay:10.37,2013-05-06 05:56:00,
2013-05-06 02:01:00,56.1,55.0,29.97,NNE,20,1.1,1.1,96,0.00,CLR,,0.00,WeatherDisplay:10.37,2013-05-06 06:01:00,
2013-05-06 02:06:00,56.0,54.9,29.97,North,11,2.3,2.3,96,0.00,CLR,,0.00,WeatherDisplay:10.37,2013-05-06 06:06:00,
2013-05-06 02:11:00,56.0,54.9,29.97,North,6,1.1,1.1,96,0.00,CLR,,0.00,WeatherDisplay:10.37,2013-05-06 06:11:00,
2013-05-06 02:16:00,55.9,54.8,29.97,NNW,338,3.5,3.5,96,0.00,CLR,,0.00,WeatherDisplay:10.37,2013-05-06 06:16:00,
2013-05-06 02:21:00,55.8,54.7,29.97,NNW,337,8.1,8.1,96,0.00,CLR,,0.00,WeatherDisplay:10.37,2013-05-06 06:21:00,
2013-05-06 02:26:00,55.8,54.7,29.96,NE,38,1.1,1.1,96,0.00,CLR,,0.00,WeatherDisplay:10.37,2013-05-06 06:26:00,
2013-05-06 02:31:00,55.8,54.7,29.96,NNE,14,3.5,3.5,96,0.00,CLR,,0.00,WeatherDisplay:10.37,2013-05-06 06:31:00,
2013-05-06 02:36:00,55.7,54.6,29.96,East,91,1.1,1.1,96,0.00,CLR,,0.00,WeatherDisplay:10.37,2013-05-06 06:36:00,
2013-05-06 02:41:00,55.7,54.6,29.96,NE,43,0.0,0.0,96,0.00,CLR,,0.00,WeatherDisplay:10.37,2013-05-06 06:41:00,
2013-05-06 02:46:00,55.7,54.6,29.96,East,94,5.0,5.0,96,0.00,CLR,,0.00,WeatherDisplay:10.37,2013-05-06 06:46:00,
2013-05-06 02:51:00,55.7,54.6,29.95,NNE,12,2.3,2.3,96,0.00,CLR,,0.00,WeatherDisplay:10.37,2013-05-06 06:51:00,
2013-05-06 02:56:00,55.7,54.6,29.95,East,84,1.1,1.1,96,0.00,CLR,,0.00,WeatherDisplay:10.37,2013-05-06 06:56:00,
2013-05-06 03:01:00,55.7,54.6,29.95,NNW,345,4.0,4.0,96,0.00,CLR,,0.00,WeatherDisplay:10.37,2013-05-06 07:01:00,
2013-05-06 03:06:00,55.6,54.8,29.95,ESE,105,3.5,3.5,97,0.00,CLR,,0.00,WeatherDisplay:10.37,2013-05-06 07:06:00,
2013-05-06 03:11:00,55.6,54.8,29.95,WNW,298,2.3,2.3,97,0.00,CLR,,0.00,WeatherDisplay:10.37,2013-05-06 07:11:00,
2013-05-06 03:16:00,55.6,54.8,29.95,East,94,4.0,4.0,97,0.00,CLR,,0.00,WeatherDisplay:10.37,2013-05-06 07:16:00,
2013-05-06 03:21:00,55.6,54.8,29.95,SE,127,3.5,3.5,97,0.00,CLR,,0.00,WeatherDisplay:10.37,2013-05-06 07:21:00,
2013-05-06 03:26:00,55.6,54.8,29.95,NNW,328,2.3,2.3,97,0.00,CLR,,0.00,WeatherDisplay:10.37,2013-05-06 07:26:00,
2013-05-06 03:31:00,55.6,54.8,29.94,NNE,27,2.3,2.3,97,0.00,CLR,,0.00,WeatherDisplay:10.37,2013-05-06 07:31:00,
2013-05-06 03:36:00,55.6,54.8,29.94,NNE,31,2.3,2.3,97,0.00,CLR,,0.00,WeatherDisplay:10.37,2013-05-06 07:36:00,
2013-05-06 03:41:00,55.6,54.8,29.94,NE,37,1.1,1.1,97,0.00,CLR,,0.00,WeatherDisplay:10.37,2013-05-06 07:41:00,
2013-05-06 03:46:00,55.6,54.8,29.94,NNE,25,3.5,3.5,97,0.00,CLR,,0.00,WeatherDisplay:10.37,2013-05-06 07:46:00,
2013-05-06 03:51:00,55.6,54.8,29.94,NNE,30,2.3,2.3,97,0.00,CLR,,0.00,WeatherDisplay:10.37,2013-05-06 07:51:00,
2013-05-06 03:56:00,55.6,54.8,29.94,NE,37,4.6,4.6,97,0.00,CLR,,0.00,WeatherDisplay:10.37,2013-05-06 07:56:00,
2013-05-06 04:01:00,55.6,54.8,29.94,East,101,2.3,2.3,97,0.00,CLR,,0.00,WeatherDisplay:10.37,2013-05-06 08:01:00,
2013-05-06 04:06:00,55.6,54.8,29.93,North,4,1.1,1.1,97,0.00,CLR,,0.00,WeatherDisplay:10.37,2013-05-06 08:06:00,
2013-05-06 04:11:00,55.6,54.8,29.94,North,356,2.3,2.3,97,0.00,CLR,,0.00,WeatherDisplay:10.37,2013-05-06 08:11:00,
2013-05-06 04:16:00,55.6,54.8,29.94,ESE,117,1.1,1.1,97,0.00,CLR,,0.00,WeatherDisplay:10.37,2013-05-06 08:16:00,
2013-05-06 04:21:00,55.6,54.8,29.94,East,96,2.3,2.3,97,0.00,CLR,,0.00,WeatherDisplay:10.37,2013-05-06 08:21:00,
2013-05-06 04:26:00,55.6,54.8,29.94,ENE,75,3.5,3.5,97,0.01,RA,,0.01,WeatherDisplay:10.37,2013-05-06 08:26:00,
2013-05-06 04:31:00,55.7,54.9,29.94,South,173,0.0,0.0,97,0.01,RA,,0.01,WeatherDisplay:10.37,2013-05-06 08:31:00,
2013-05-06 04:36:00,55.7,54.9,29.94,ESE,110,0.0,0.0,97,0.01,CLR,,0.01,WeatherDisplay:10.37,2013-05-06 08:36:00,
2013-05-06 04:41:00,55.7,54.9,29.94,NNW,331,2.3,2.3,97,0.01,CLR,,0.01,WeatherDisplay:10.37,2013-05-06 08:41:00,
2013-05-06 04:46:00,55.7,54.9,29.94,ESE,123,3.5,3.5,97,0.01,CLR,,0.01,WeatherDisplay:10.37,2013-05-06 08:46:00,
2013-05-06 04:51:00,55.8,55.0,29.94,East,82,2.3,2.3,97,0.01,CLR,,0.01,WeatherDisplay:10.37,2013-05-06 08:51:00,
2013-05-06 04:56:00,55.8,55.0,29.94,North,352,2.3,2.3,97,0.01,CLR,,0.01,WeatherDisplay:10.37,2013-05-06 08:56:00,
2013-05-06 05:01:00,55.8,55.0,29.94,SE,127,2.0,2.0,97,0.01,CLR,,0.01,WeatherDisplay:10.37,2013-05-06 09:01:00,
2013-05-06 05:06:00,55.8,55.0,29.94,East,82,2.3,2.3,97,0.02,RA,,0.02,WeatherDisplay:10.37,2013-05-06 09:06:00,
2013-05-06 05:11:00,55.8,55.0,29.94,SE,125,1.1,0.0,97,0.03,RA,,0.03,WeatherDisplay:10.37,2013-05-06 09:11:00,
2013-05-06 05:16:00,55.8,55.0,29.94,SW,224,3.5,0.0,97,0.03,RA,,0.03,WeatherDisplay:10.37,2013-05-06 09:16:00,
2013-05-06 05:21:00,55.8,55.0,29.93,West,266,1.1,1.1,97,0.03,,,0.03,WeatherDisplay:10.37,2013-05-06 09:21:00,
2013-05-06 05:26:00,55.9,55.1,29.93,NNE,24,2.3,2.3,97,0.02,CLR,,0.03,WeatherDisplay:10.37,2013-05-06 09:26:00,
2013-05-06 05:31:00,55.9,55.1,29.93,NE,44,0.0,0.0,97,0.02,CLR,,0.03,WeatherDisplay:10.37,2013-05-06 09:31:00,
2013-05-06 05:36:00,55.9,55.1,29.92,North,9,2.3,2.3,97,0.02,CLR,,0.03,WeatherDisplay:10.37,2013-05-06 09:36:00,
2013-05-06 05:41:00,55.9,55.1,29.92,ENE,62,0.0,0.0,97,0.02,CLR,,0.03,WeatherDisplay:10.37,2013-05-06 09:41:00,
2013-05-06 05:46:00,56.0,55.2,29.92,NE,50,2.3,2.3,97,0.02,CLR,,0.03,WeatherDisplay:10.37,2013-05-06 09:46:00,
2013-05-06 05:51:00,56.0,55.2,29.92,East,84,2.3,2.3,97,0.02,CLR,,0.03,WeatherDisplay:10.37,2013-05-06 09:51:00,
2013-05-06 05:56:00,56.0,55.2,29.92,North,358,1.1,1.1,97,0.02,CLR,,0.03,WeatherDisplay:10.37,2013-05-06 09:56:00,
2013-05-06 06:01:00,56.1,55.3,29.92,SE,133,1.1,1.1,97,0.02,CLR,,0.03,WeatherDisplay:10.37,2013-05-06 10:01:00,
2013-05-06 06:06:00,56.1,55.3,29.92,NE,54,1.1,1.1,97,0.01,CLR,,0.03,WeatherDisplay:10.37,2013-05-06 10:06:00,
2013-05-06 06:11:00,56.2,55.4,29.92,NNE,25,1.1,1.1,97,0.00,CLR,,0.03,WeatherDisplay:10.37,2013-05-06 10:11:00,
2013-05-06 06:16:00,56.2,55.4,29.92,NNE,20,3.5,3.5,97,0.00,CLR,,0.03,WeatherDisplay:10.37,2013-05-06 10:16:00,
2013-05-06 06:21:00,56.3,55.5,29.92,NNE,26,1.1,1.1,97,0.01,RA,,0.04,WeatherDisplay:10.37,2013-05-06 10:21:00,
2013-05-06 06:26:00,56.3,55.5,29.92,NNE,19,3.5,3.5,97,0.01,RA,,0.04,WeatherDisplay:10.37,2013-05-06 10:26:00,
2013-05-06 06:31:00,56.3,55.5,29.92,North,5,1.0,1.3,97,0.01,CLR,,0.04,WeatherDisplay:10.37,2013-05-06 10:31:00,
2013-05-06 06:36:00,56.4,55.6,29.92,North,356,3.5,3.5,97,0.01,CLR,,0.04,WeatherDisplay:10.37,2013-05-06 10:36:00,
2013-05-06 06:41:00,56.5,55.7,29.92,North,11,3.5,3.5,97,0.01,CLR,,0.04,WeatherDisplay:10.37,2013-05-06 10:41:00,
2013-05-06 06:46:00,56.5,55.7,29.92,NE,36,3.0,3.0,97,0.01,CLR,,0.04,WeatherDisplay:10.37,2013-05-06 10:46:00,
2013-05-06 06:51:00,56.5,55.7,29.92,SE,136,2.3,2.3,97,0.01,CLR,,0.04,WeatherDisplay:10.37,2013-05-06 10:51:00,
2013-05-06 06:56:00,56.6,55.8,29.93,NNE,32,4.6,4.6,97,0.01,CLR,,0.04,WeatherDisplay:10.37,2013-05-06 10:56:00,
2013-05-06 07:01:00,56.7,55.9,29.93,NE,40,2.3,2.3,97,0.01,CLR,,0.04,WeatherDisplay:10.37,2013-05-06 11:01:00,
2013-05-06 07:06:00,56.7,55.9,29.93,ENE,74,2.3,2.3,97,0.01,CLR,,0.04,WeatherDisplay:10.37,2013-05-06 11:06:00,
2013-05-06 07:11:00,56.8,56.0,29.93,North,9,3.5,3.5,97,0.01,CLR,,0.04,WeatherDisplay:10.37,2013-05-06 11:11:00,
2013-05-06 07:16:00,56.8,56.0,29.93,ENE,68,3.5,3.5,97,0.01,CLR,,0.04,WeatherDisplay:10.37,2013-05-06 11:16:00,
2013-05-06 07:21:00,56.9,56.1,29.93,NE,44,1.1,1.1,97,0.00,CLR,,0.04,WeatherDisplay:10.37,2013-05-06 11:21:00,
2013-05-06 07:26:00,57.0,56.2,29.94,ENE,74,3.5,3.5,97,0.00,CLR,,0.04,WeatherDisplay:10.37,2013-05-06 11:26:00,
2013-05-06 07:31:00,57.0,56.2,29.94,SE,143,3.5,3.5,97,0.00,CLR,,0.04,WeatherDisplay:10.37,2013-05-06 11:31:00,
2013-05-06 07:36:00,57.1,56.5,29.94,ESE,103,2.3,2.3,98,0.00,CLR,,0.04,WeatherDisplay:10.37,2013-05-06 11:36:00,
2013-05-06 07:41:00,57.1,56.3,29.94,ESE,109,1.1,1.1,97,0.00,CLR,,0.04,WeatherDisplay:10.37,2013-05-06 11:41:00,
2013-05-06 07:46:00,57.2,56.6,29.94,NE,53,2.3,2.3,98,0.00,CLR,,0.04,WeatherDisplay:10.37,2013-05-06 11:46:00,
2013-05-06 07:51:00,57.2,56.4,29.94,NNE,16,3.5,3.5,97,0.00,CLR,,0.04,WeatherDisplay:10.37,2013-05-06 11:51:00,
2013-05-06 07:56:00,57.2,56.6,29.94,East,94,2.3,2.3,98,0.00,CLR,,0.04,WeatherDisplay:10.37,2013-05-06 11:56:00,
2013-05-06 08:01:00,57.4,56.8,29.94,NNE,16,3.5,3.5,98,0.00,CLR,,0.04,WeatherDisplay:10.37,2013-05-06 12:01:00,
2013-05-06 08:06:00,57.4,56.8,29.94,NNE,16,1.1,1.1,98,0.00,CLR,,0.04,WeatherDisplay:10.37,2013-05-06 12:06:00,
2013-05-06 08:11:00,57.5,56.9,29.94,North,360,2.3,2.3,98,0.00,CLR,,0.04,WeatherDisplay:10.37,2013-05-06 12:11:00,
2013-05-06 08:16:00,57.6,57.0,29.94,North,8,4.0,4.0,98,0.00,CLR,,0.04,WeatherDisplay:10.37,2013-05-06 12:16:00,
2013-05-06 08:21:00,57.7,57.1,29.94,NNE,16,2.3,2.3,98,0.00,CLR,,0.04,WeatherDisplay:10.37,2013-05-06 12:21:00,
2013-05-06 08:26:00,57.8,57.2,29.94,NNE,31,1.1,1.1,98,0.00,CLR,,0.04,WeatherDisplay:10.37,2013-05-06 12:26:00,
2013-05-06 08:31:00,57.9,57.3,29.94,NNW,330,1.1,1.1,98,0.00,CLR,,0.04,WeatherDisplay:10.37,2013-05-06 12:31:00,
2013-05-06 08:36:00,58.1,57.5,29.93,NNE,30,4.6,4.6,98,0.00,CLR,,0.04,WeatherDisplay:10.37,2013-05-06 12:36:00,
2013-05-06 08:41:00,58.2,57.6,29.93,WSW,245,2.3,2.4,98,0.00,CLR,,0.04,WeatherDisplay:10.37,2013-05-06 12:41:00,
2013-05-06 08:46:00,58.3,57.7,29.93,North,354,2.3,2.3,98,0.00,CLR,,0.04,WeatherDisplay:10.37,2013-05-06 12:46:00,
2013-05-06 08:51:00,58.4,57.8,29.93,NNW,346,2.3,2.3,98,0.00,CLR,,0.04,WeatherDisplay:10.37,2013-05-06 12:51:00,
2013-05-06 08:56:00,58.5,57.7,29.93,East,81,4.0,4.0,97,0.00,CLR,,0.04,WeatherDisplay:10.37,2013-05-06 12:56:00,
2013-05-06 09:07:00,59.0,58.4,29.92,ENE,78,7.0,7.0,98,0.00,CLR,,0.04,WeatherDisplay:10.37,2013-05-06 13:07:00,
2013-05-06 09:12:00,59.3,58.7,29.92,ESE,115,2.3,2.3,98,0.00,CLR,,0.04,WeatherDisplay:10.37,2013-05-06 13:12:00,
2013-05-06 09:17:00,59.5,58.9,29.92,East,101,3.0,3.0,98,0.00,CLR,,0.04,WeatherDisplay:10.37,2013-05-06 13:17:00,
2013-05-06 09:22:00,59.7,58.8,29.92,SW,228,6.9,6.9,97,0.00,CLR,,0.04,WeatherDisplay:10.37,2013-05-06 13:22:00,
2013-05-06 09:27:00,59.9,59.0,29.92,East,84,3.5,3.5,97,0.00,CLR,,0.04,WeatherDisplay:10.37,2013-05-06 13:27:00,
2013-05-06 09:32:00,59.9,59.0,29.92,East,84,2.3,2.3,97,0.00,CLR,,0.04,WeatherDisplay:10.37,2013-05-06 13:32:00,
2013-05-06 09:37:00,60.1,59.2,29.92,East,95,3.5,3.5,97,0.00,CLR,,0.04,WeatherDisplay:10.37,2013-05-06 13:37:00,
2013-05-06 09:42:00,60.3,59.4,29.93,ENE,65,3.0,3.0,97,0.00,CLR,,0.04,WeatherDisplay:10.37,2013-05-06 13:42:00,
2013-05-06 09:47:00,60.5,59.4,29.93,NNE,33,4.6,4.6,96,0.00,CLR,,0.04,WeatherDisplay:10.37,2013-05-06 13:47:00,
2013-05-06 09:52:00,60.6,59.5,29.93,NE,43,3.5,3.5,96,0.00,CLR,,0.04,WeatherDisplay:10.37,2013-05-06 13:52:00,
2013-05-06 09:57:00,60.7,59.6,29.92,NE,55,2.3,2.3,96,0.00,CLR,,0.04,WeatherDisplay:10.37,2013-05-06 13:57:00,
2013-05-06 10:02:00,60.9,59.8,29.93,NE,44,3.5,3.5,96,0.00,CLR,,0.04,WeatherDisplay:10.37,2013-05-06 14:02:00,
2013-05-06 10:06:00,61.0,59.6,29.93,NE,43,3.0,3.0,95,0.00,CLR,,0.04,WeatherDisplay:10.37,2013-05-06 14:06:00,
2013-05-06 10:11:00,61.2,59.8,29.93,NNE,25,3.5,3.5,95,0.00,CLR,,0.04,WeatherDisplay:10.37,2013-05-06 14:11:00,
2013-05-06 10:16:00,61.5,60.1,29.93,ENE,64,2.0,2.0,95,0.00,CLR,,0.04,WeatherDisplay:10.37,2013-05-06 14:16:00,
2013-05-06 10:21:00,61.7,60.3,29.92,North,6,2.3,2.3,95,0.00,CLR,,0.04,WeatherDisplay:10.37,2013-05-06 14:21:00,
2013-05-06 10:26:00,61.9,60.5,29.92,East,80,3.5,3.5,95,0.01,RA,,0.05,WeatherDisplay:10.37,2013-05-06 14:26:00,
2013-05-06 10:31:00,62.1,60.7,29.92,NNE,18,2.0,2.0,95,0.01,RA,,0.05,WeatherDisplay:10.37,2013-05-06 14:31:00,
2013-05-06 10:36:00,62.2,60.8,29.92,ENE,68,2.0,2.0,95,0.01,CLR,,0.05,WeatherDisplay:10.37,2013-05-06 14:36:00,
2013-05-06 10:41:00,62.4,60.9,29.92,SW,214,2.3,2.3,95,0.01,CLR,,0.05,WeatherDisplay:10.37,2013-05-06 14:41:00,
2013-05-06 10:46:00,62.3,60.8,29.92,SE,141,1.1,1.1,95,0.01,CLR,,0.05,WeatherDisplay:10.37,2013-05-06 14:46:00,
2013-05-06 10:51:00,62.3,60.8,29.92,WSW,242,1.1,0.0,95,0.02,RA,,0.06,WeatherDisplay:10.37,2013-05-06 14:51:00,
2013-05-06 10:56:00,62.4,60.9,29.92,ESE,115,2.0,2.0,95,0.02,RA,,0.06,WeatherDisplay:10.37,2013-05-06 14:56:00,
2013-05-06 11:01:00,62.3,60.8,29.91,NNE,25,1.1,0.0,95,0.02,,,0.06,WeatherDisplay:10.37,2013-05-06 15:01:00,
2013-05-06 11:06:00,62.2,60.8,29.91,East,94,0.0,0.1,95,0.03,RA,,0.07,WeatherDisplay:10.37,2013-05-06 15:06:00,
2013-05-06 11:11:00,62.2,60.8,29.91,SE,131,0.0,0.0,95,0.03,RA,,0.08,WeatherDisplay:10.37,2013-05-06 15:11:00,
2013-05-06 11:16:00,62.2,60.8,29.91,ENE,63,1.1,1.1,95,0.10,RA,,0.14,WeatherDisplay:10.37,2013-05-06 15:16:00,
2013-05-06 11:21:00,62.1,60.7,29.91,ENE,75,1.1,1.1,95,0.15,RA,,0.19,WeatherDisplay:10.37,2013-05-06 15:21:00,
2013-05-06 11:26:00,61.9,60.7,29.91,NNE,27,3.0,3.0,96,0.15,RA,,0.20,WeatherDisplay:10.37,2013-05-06 15:26:00,
2013-05-06 11:31:00,61.8,60.6,29.91,NNE,20,5.8,5.8,96,0.15,RA,,0.20,WeatherDisplay:10.37,2013-05-06 15:31:00,
2013-05-06 11:36:00,61.8,60.6,29.90,SE,136,1.1,1.1,96,0.15,,,0.20,WeatherDisplay:10.37,2013-05-06 15:36:00,
2013-05-06 11:41:00,61.8,60.6,29.90,NNW,336,2.3,2.3,96,0.15,CLR,,0.20,WeatherDisplay:10.37,2013-05-06 15:41:00,
2013-05-06 11:46:00,61.8,60.6,29.90,ENE,70,1.1,1.1,96,0.16,RA,,0.21,WeatherDisplay:10.37,2013-05-06 15:46:00,
2013-05-06 11:51:00,61.8,60.9,29.89,North,358,2.3,2.3,97,0.16,RA,,0.22,WeatherDisplay:10.37,2013-05-06 15:51:00,
2013-05-06 11:56:00,61.8,60.6,29.90,ESE,121,2.3,2.3,96,0.17,RA,,0.23,WeatherDisplay:10.37,2013-05-06 15:56:00,
2013-05-06 12:01:00,61.8,60.9,29.90,West,269,2.3,2.3,97,0.18,RA,,0.24,WeatherDisplay:10.37,2013-05-06 16:01:00,
2013-05-06 12:06:00,61.8,60.9,29.89,ESE,110,2.3,2.3,97,0.17,RA,,0.24,WeatherDisplay:10.37,2013-05-06 16:06:00,
2013-05-06 12:11:00,62.0,61.1,29.88,ENE,65,1.1,1.1,97,0.17,,,0.24,WeatherDisplay:10.37,2013-05-06 16:11:00,
2013-05-06 12:16:00,62.4,61.5,29.88,ESE,103,0.0,0.0,97,0.10,CLR,,0.24,WeatherDisplay:10.37,2013-05-06 16:16:00,
2013-05-06 12:21:00,62.9,62.0,29.87,ESE,111,4.6,4.6,97,0.05,CLR,,0.24,WeatherDisplay:10.37,2013-05-06 16:21:00,
2013-05-06 12:26:00,63.2,62.3,29.87,ENE,67,1.0,1.0,97,0.05,RA,,0.25,WeatherDisplay:10.37,2013-05-06 16:26:00,
2013-05-06 12:31:00,63.5,62.6,29.87,ENE,60,4.6,4.6,97,0.05,RA,,0.25,WeatherDisplay:10.37,2013-05-06 16:31:00,
2013-05-06 12:36:00,63.7,62.8,29.87,NW,326,3.5,3.5,97,0.05,CLR,,0.25,WeatherDisplay:10.37,2013-05-06 16:36:00,
2013-05-06 12:41:00,63.7,62.5,29.86,ESE,106,3.5,3.5,96,0.05,CLR,,0.25,WeatherDisplay:10.37,2013-05-06 16:41:00,
2013-05-06 12:46:00,63.7,62.5,29.86,North,8,3.5,3.5,96,0.04,CLR,,0.25,WeatherDisplay:10.37,2013-05-06 16:46:00,
2013-05-06 12:51:00,63.6,62.4,29.85,East,97,2.3,2.3,96,0.03,CLR,,0.25,WeatherDisplay:10.37,2013-05-06 16:51:00,
2013-05-06 12:56:00,63.5,62.3,29.86,ENE,70,2.3,2.3,96,0.02,CLR,,0.25,WeatherDisplay:10.37,2013-05-06 16:56:00,
2013-05-06 13:01:00,63.4,62.2,29.86,NE,56,1.1,1.1,96,0.01,CLR,,0.25,WeatherDisplay:10.37,2013-05-06 17:01:00,
2013-05-06 13:06:00,63.3,62.1,29.86,ENE,61,1.1,1.1,96,0.01,CLR,,0.25,WeatherDisplay:10.37,2013-05-06 17:06:00,
2013-05-06 13:11:00,63.3,62.1,29.86,East,91,3.5,0.0,96,0.01,CLR,,0.25,WeatherDisplay:10.37,2013-05-06 17:11:00,
2013-05-06 13:16:00,63.3,62.4,29.86,WSW,239,1.1,0.0,97,0.01,CLR,,0.25,WeatherDisplay:10.37,2013-05-06 17:16:00,
2013-05-06 13:21:00,63.3,62.4,29.85,NNW,348,2.3,2.3,97,0.01,CLR,,0.25,WeatherDisplay:10.37,2013-05-06 17:21:00,
2013-05-06 13:26:00,63.3,62.4,29.85,SW,233,1.1,0.0,97,0.01,RA,,0.26,WeatherDisplay:10.37,2013-05-06 17:26:00,
2013-05-06 13:31:00,63.2,62.3,29.85,North,9,1.0,1.0,97,0.01,RA,,0.26,WeatherDisplay:10.37,2013-05-06 17:31:00,
2013-05-06 13:36:00,63.2,62.3,29.84,NNW,341,0.0,0.1,97,0.10,RA,,0.36,WeatherDisplay:10.37,2013-05-06 17:36:00,
2013-05-06 13:41:00,63.2,62.3,29.85,NE,56,3.5,3.5,97,0.18,RA,,0.45,WeatherDisplay:10.37,2013-05-06 17:41:00,
2013-05-06 13:46:00,63.2,62.3,29.85,ESE,106,0.0,0.0,97,0.21,RA,,0.46,WeatherDisplay:10.37,2013-05-06 17:46:00,
2013-05-06 13:51:00,63.3,62.4,29.85,SW,217,1.1,1.1,97,0.31,RA,,0.57,WeatherDisplay:10.37,2013-05-06 17:51:00,
2013-05-06 13:56:00,63.2,62.3,29.86,SW,225,4.6,4.6,97,0.34,RA,,0.60,WeatherDisplay:10.37,2013-05-06 17:56:00,
2013-05-06 14:01:00,62.6,61.4,29.86,SW,218,2.3,2.3,96,0.44,RA,,0.70,WeatherDisplay:10.37,2013-05-06 18:01:00,
2013-05-06 14:06:00,61.9,60.5,29.86,SSE,166,1.1,1.1,95,0.48,RA,,0.73,WeatherDisplay:10.37,2013-05-06 18:06:00,
2013-05-06 14:11:00,61.5,60.3,29.86,West,267,1.1,0.0,96,0.56,RA,,0.85,WeatherDisplay:10.37,2013-05-06 18:11:00,
2013-05-06 15:28:00,60.3,59.2,29.84,North,6,1.1,0.0,96,0.56,RA,,0.85,WeatherDisplay:10.37,2013-05-06 19:28:00,
2013-05-06 15:33:00,60.2,59.1,29.85,East,92,1.1,1.1,96,0.60,RA,,0.85,WeatherDisplay:10.37,2013-05-06 19:33:00,
2013-05-06 15:38:00,60.1,59.0,29.85,East,91,0.0,0.0,96,0.60,RA,,0.85,WeatherDisplay:10.37,2013-05-06 19:38:00,
2013-05-06 15:43:00,60.1,59.2,29.85,East,101,1.1,0.0,97,0.60,RA,,0.86,WeatherDisplay:10.37,2013-05-06 19:43:00,
2013-05-06 15:48:00,60.0,58.9,29.85,NW,314,0.0,0.0,96,0.60,RA,,0.86,WeatherDisplay:10.37,2013-05-06 19:48:00,
2013-05-06 15:53:00,59.8,58.7,29.85,North,4,0.0,0.0,96,0.51,,,0.86,WeatherDisplay:10.37,2013-05-06 19:53:00,
2013-05-06 15:58:00,59.6,58.5,29.84,NW,309,0.0,0.0,96,0.47,RA,,0.91,WeatherDisplay:10.37,2013-05-06 19:58:00,
2013-05-06 16:03:00,59.6,58.5,29.84,NW,309,0.0,0.0,96,0.46,RA,,0.92,WeatherDisplay:10.37,2013-05-06 20:03:00,
2013-05-06 16:08:00,59.8,58.9,29.84,NW,319,0.0,0.0,97,0.36,RA,,0.92,WeatherDisplay:10.37,2013-05-06 20:08:00,
2013-05-06 16:13:00,60.3,59.4,29.84,NW,319,0.0,0.0,97,0.33,CLR,,0.92,WeatherDisplay:10.37,2013-05-06 20:13:00,
2013-05-06 16:18:00,60.8,59.9,29.83,NW,319,0.0,0.0,97,0.23,CLR,,0.92,WeatherDisplay:10.37,2013-05-06 20:18:00,
2013-05-06 16:23:00,61.4,60.5,29.83,North,11,1.1,1.1,97,0.19,CLR,,0.92,WeatherDisplay:10.37,2013-05-06 20:23:00,
2013-05-06 16:28:00,62.0,61.1,29.82,ESE,116,1.1,1.1,97,0.11,CLR,,0.92,WeatherDisplay:10.37,2013-05-06 20:28:00,
2013-05-06 16:33:00,63.0,62.1,29.82,ENE,65,1.0,1.0,97,0.07,CLR,,0.92,WeatherDisplay:10.37,2013-05-06 20:33:00,
2013-05-06 16:38:00,63.3,61.8,29.82,NNE,16,0.0,0.0,95,0.07,CLR,,0.92,WeatherDisplay:10.37,2013-05-06 20:38:00,
2013-05-06 16:43:00,64.0,62.5,29.82,NNE,18,2.3,2.3,95,0.06,CLR,,0.92,WeatherDisplay:10.37,2013-05-06 20:43:00,
2013-05-06 16:48:00,64.6,63.1,29.82,East,82,0.0,0.1,95,0.06,CLR,,0.92,WeatherDisplay:10.37,2013-05-06 20:48:00,
2013-05-06 16:53:00,65.2,63.4,29.82,ESE,108,3.5,3.5,94,0.06,CLR,,0.92,WeatherDisplay:10.37,2013-05-06 20:53:00,
2013-05-06 16:58:00,65.9,63.2,29.81,SE,141,3.5,3.5,91,0.02,CLR,,0.92,WeatherDisplay:10.37,2013-05-06 20:58:00,
2013-05-06 17:03:00,66.5,63.8,29.82,East,94,3.5,3.5,91,0.00,CLR,,0.92,WeatherDisplay:10.37,2013-05-06 21:03:00,
2013-05-06 17:08:00,67.1,64.4,29.82,East,101,2.3,2.3,91,0.00,CLR,,0.92,WeatherDisplay:10.37,2013-05-06 21:08:00,
2013-05-06 17:13:00,67.3,63.9,29.82,SE,134,1.1,1.1,89,0.00,CLR,,0.92,WeatherDisplay:10.37,2013-05-06 21:13:00,
2013-05-06 17:18:00,67.4,64.0,29.82,SW,214,0.0,0.0,89,0.00,CLR,,0.92,WeatherDisplay:10.37,2013-05-06 21:18:00,
2013-05-06 17:23:00,67.5,63.8,29.82,WSW,249,0.0,0.1,88,0.00,CLR,,0.92,WeatherDisplay:10.37,2013-05-06 21:23:00,
2013-05-06 17:28:00,68.0,64.3,29.82,South,183,0.0,0.0,88,0.00,CLR,,0.92,WeatherDisplay:10.37,2013-05-06 21:28:00,
2013-05-06 17:33:00,68.8,64.1,29.82,ESE,111,1.1,1.1,85,0.00,CLR,,0.92,WeatherDisplay:10.37,2013-05-06 21:33:00,
2013-05-06 17:38:00,69.0,65.0,29.82,East,98,0.0,0.0,87,0.00,CLR,,0.92,WeatherDisplay:10.37,2013-05-06 21:38:00,
2013-05-06 17:43:00,69.1,64.7,29.82,WNW,291,1.1,1.1,86,0.00,CLR,,0.92,WeatherDisplay:10.37,2013-05-06 21:43:00,
2013-05-06 17:48:00,68.4,64.4,29.82,WNW,287,1.1,1.1,87,0.00,CLR,,0.92,WeatherDisplay:10.37,2013-05-06 21:48:00,
2013-05-06 17:53:00,68.5,64.5,29.82,North,349,0.0,0.0,87,0.00,CLR,,0.92,WeatherDisplay:10.37,2013-05-06 21:53:00,
2013-05-06 17:58:00,68.4,64.4,29.82,NNW,348,0.0,0.0,87,0.00,CLR,,0.92,WeatherDisplay:10.37,2013-05-06 21:58:00,
2013-05-06 18:01:00,69.0,65.3,29.82,West,273,1.1,1.1,88,0.00,CLR,,0.92,WeatherDisplay:10.37,2013-05-06 22:01:00,
2013-05-06 18:06:00,69.5,65.1,29.82,West,278,0.0,0.0,86,0.00,CLR,,0.92,WeatherDisplay:10.37,2013-05-06 22:06:00,
2013-05-06 18:11:00,69.7,64.6,29.82,WSW,245,2.3,2.3,84,0.00,CLR,,0.92,WeatherDisplay:10.37,2013-05-06 22:11:00,
2013-05-06 18:16:00,69.7,64.3,29.82,SW,225,1.1,0.0,83,0.00,CLR,,0.92,WeatherDisplay:10.37,2013-05-06 22:16:00,
2013-05-06 18:21:00,70.8,65.7,29.82,SW,224,0.0,0.0,84,0.00,CLR,,0.92,WeatherDisplay:10.37,2013-05-06 22:21:00,
2013-05-06 18:26:00,71.2,65.1,29.81,East,81,2.3,2.3,81,0.00,CLR,,0.92,WeatherDisplay:10.37,2013-05-06 22:26:00,
2013-05-06 18:31:00,70.0,64.6,29.82,NNE,20,2.3,0.0,83,0.00,CLR,,0.92,WeatherDisplay:10.37,2013-05-06 22:31:00,
2013-05-06 18:36:00,68.9,64.2,29.81,NNE,15,0.0,0.0,85,0.00,CLR,,0.92,WeatherDisplay:10.37,2013-05-06 22:36:00,
2013-05-06 18:41:00,68.1,64.1,29.81,NNE,15,0.0,0.0,87,0.00,CLR,,0.92,WeatherDisplay:10.37,2013-05-06 22:41:00,
2013-05-06 18:46:00,67.5,63.8,29.81,NNE,14,0.0,0.0,88,0.00,CLR,,0.92,WeatherDisplay:10.37,2013-05-06 22:46:00,
2013-05-06 18:51:00,66.9,63.9,29.81,NNE,15,0.0,0.0,90,0.00,CLR,,0.92,WeatherDisplay:10.37,2013-05-06 22:51:00,
2013-05-06 18:56:00,66.4,63.4,29.81,NNE,16,0.0,0.0,90,0.00,CLR,,0.92,WeatherDisplay:10.37,2013-05-06 22:56:00,
2013-05-06 19:01:00,66.1,63.4,29.81,NNE,16,0.0,0.0,91,0.00,CLR,,0.92,WeatherDisplay:10.37,2013-05-06 23:01:00,
2013-05-06 19:06:00,66.0,63.6,29.81,NNE,16,0.0,0.0,92,0.00,CLR,,0.92,WeatherDisplay:10.37,2013-05-06 23:06:00,
2013-05-06 19:11:00,65.8,63.4,29.82,NNE,16,0.0,0.0,92,0.00,CLR,,0.92,WeatherDisplay:10.37,2013-05-06 23:11:00,
2013-05-06 19:16:00,65.6,63.2,29.82,NNE,16,0.0,0.0,92,0.00,CLR,,0.92,WeatherDisplay:10.37,2013-05-06 23:16:00,
2013-05-06 19:21:00,65.5,63.4,29.82,NNE,16,0.0,0.0,93,0.00,CLR,,0.92,WeatherDisplay:10.37,2013-05-06 23:21:00,
2013-05-06 19:26:00,65.5,63.4,29.82,NNW,331,0.0,0.0,93,0.00,CLR,,0.92,WeatherDisplay:10.37,2013-05-06 23:26:00,
2013-05-06 19:31:00,65.4,63.3,29.82,NNW,331,0.0,0.0,93,0.00,CLR,,0.92,WeatherDisplay:10.37,2013-05-06 23:31:00,
2013-05-06 19:36:00,65.2,63.1,29.82,NNW,333,0.0,0.0,93,0.00,CLR,,0.92,WeatherDisplay:10.37,2013-05-06 23:36:00,
2013-05-06 19:41:00,65.2,63.4,29.82,ESE,117,0.0,0.0,94,0.00,CLR,,0.92,WeatherDisplay:10.37,2013-05-06 23:41:00,
2013-05-06 19:46:00,65.0,63.2,29.82,ESE,117,0.0,0.0,94,0.00,CLR,,0.92,WeatherDisplay:10.37,2013-05-06 23:46:00,
2013-05-06 19:51:00,64.9,63.1,29.83,ESE,117,0.0,0.0,94,0.00,CLR,,0.92,WeatherDisplay:10.37,2013-05-06 23:51:00,
2013-05-06 19:56:00,64.8,63.0,29.83,ESE,117,0.0,0.0,94,0.00,CLR,,0.92,WeatherDisplay:10.37,2013-05-06 23:56:00,
2013-05-06 20:01:00,64.7,62.9,29.83,West,270,0.0,0.0,94,0.00,CLR,,0.92,WeatherDisplay:10.37,2013-05-07 00:01:00,
2013-05-06 20:06:00,64.7,62.9,29.83,East,81,2.3,2.3,94,0.00,CLR,,0.92,WeatherDisplay:10.37,2013-05-07 00:06:00,
2013-05-06 20:11:00,64.6,62.8,29.83,East,89,1.1,0.0,94,0.00,CLR,,0.92,WeatherDisplay:10.37,2013-05-07 00:11:00,
2013-05-06 20:16:00,64.6,62.8,29.83,SE,129,1.1,1.1,94,0.00,CLR,,0.92,WeatherDisplay:10.37,2013-05-07 00:16:00,
2013-05-06 20:21:00,64.5,62.7,29.83,SE,124,0.0,0.0,94,0.00,CLR,,0.92,WeatherDisplay:10.37,2013-05-07 00:21:00,
2013-05-06 20:26:00,64.3,62.5,29.84,SW,224,1.1,0.0,94,0.00,CLR,,0.92,WeatherDisplay:10.37,2013-05-07 00:26:00,
2013-05-06 20:31:00,64.0,62.2,29.84,SW,224,0.0,0.0,94,0.00,CLR,,0.92,WeatherDisplay:10.37,2013-05-07 00:31:00,
2013-05-06 20:36:00,63.8,62.0,29.84,SW,224,0.0,0.0,94,0.00,CLR,,0.92,WeatherDisplay:10.37,2013-05-07 00:36:00,
2013-05-06 20:41:00,63.5,62.0,29.84,SW,224,0.0,0.0,95,0.00,CLR,,0.92,WeatherDisplay:10.37,2013-05-07 00:41:00,
2013-05-06 20:46:00,63.3,61.8,29.84,SW,224,0.0,0.0,95,0.00,CLR,,0.92,WeatherDisplay:10.37,2013-05-07 00:46:00,
2013-05-06 20:51:00,63.1,61.6,29.84,SW,224,0.0,0.0,95,0.00,CLR,,0.92,WeatherDisplay:10.37,2013-05-07 00:51:00,
2013-05-06 20:56:00,63.0,61.8,29.85,West,274,0.0,0.0,96,0.00,CLR,,0.92,WeatherDisplay:10.37,2013-05-07 00:56:00,
2013-05-06 21:01:00,62.9,61.4,29.85,West,274,0.0,0.0,95,0.00,CLR,,0.92,WeatherDisplay:10.37,2013-05-07 01:01:00,
2013-05-06 21:06:00,62.8,61.6,29.85,ESE,106,0.0,0.0,96,0.00,CLR,,0.92,WeatherDisplay:10.37,2013-05-07 01:06:00,
2013-05-06 21:11:00,62.8,61.6,29.85,SSW,195,0.0,0.0,96,0.00,CLR,,0.92,WeatherDisplay:10.37,2013-05-07 01:11:00,
2013-05-06 21:16:00,62.6,61.4,29.85,East,96,1.1,0.0,96,0.00,CLR,,0.92,WeatherDisplay:10.37,2013-05-07 01:16:00,
2013-05-06 21:21:00,62.5,61.3,29.85,East,94,0.0,0.0,96,0.00,CLR,,0.92,WeatherDisplay:10.37,2013-05-07 01:21:00,
2013-05-06 21:26:00,62.4,61.2,29.85,ESE,103,1.1,0.0,96,0.00,CLR,,0.92,WeatherDisplay:10.37,2013-05-07 01:26:00,
2013-05-06 21:31:00,62.3,61.1,29.86,ESE,120,0.0,0.0,96,0.00,CLR,,0.92,WeatherDisplay:10.37,2013-05-07 01:31:00,
2013-05-06 21:36:00,62.2,61.0,29.86,ESE,120,0.0,0.0,96,0.00,CLR,,0.92,WeatherDisplay:10.37,2013-05-07 01:36:00,
2013-05-06 21:41:00,62.0,60.8,29.86,SE,133,0.0,0.0,96,0.00,CLR,,0.92,WeatherDisplay:10.37,2013-05-07 01:41:00,
2013-05-06 21:46:00,61.9,60.7,29.86,SE,132,0.0,0.0,96,0.00,CLR,,0.92,WeatherDisplay:10.37,2013-05-07 01:46:00,
2013-05-06 21:51:00,61.7,60.5,29.87,SE,133,0.0,0.0,96,0.00,CLR,,0.92,WeatherDisplay:10.37,2013-05-07 01:51:00,
2013-05-06 21:56:00,61.6,60.7,29.87,ENE,71,3.5,0.0,97,0.00,CLR,,0.92,WeatherDisplay:10.37,2013-05-07 01:56:00,
2013-05-06 22:01:00,61.6,60.7,29.87,NE,43,0.0,0.0,97,0.00,CLR,,0.92,WeatherDisplay:10.37,2013-05-07 02:01:00,
2013-05-06 22:06:00,61.6,60.7,29.88,ENE,68,1.0,1.0,97,0.00,CLR,,0.92,WeatherDisplay:10.37,2013-05-07 02:06:00,
2013-05-06 22:11:00,61.7,60.8,29.88,ENE,71,2.3,2.3,97,0.00,CLR,,0.92,WeatherDisplay:10.37,2013-05-07 02:11:00,
2013-05-06 22:16:00,61.7,60.8,29.88,SE,141,0.0,0.0,97,0.00,CLR,,0.92,WeatherDisplay:10.37,2013-05-07 02:16:00,
2013-05-06 22:21:00,61.7,60.8,29.88,ESE,102,0.0,0.0,97,0.00,CLR,,0.92,WeatherDisplay:10.37,2013-05-07 02:21:00,
2013-05-06 22:26:00,61.6,60.7,29.88,SE,124,0.0,0.0,97,0.00,CLR,,0.92,WeatherDisplay:10.37,2013-05-07 02:26:00,
2013-05-06 22:31:00,61.5,60.6,29.87,SE,124,0.0,0.0,97,0.00,CLR,,0.92,WeatherDisplay:10.37,2013-05-07 02:31:00,
2013-05-06 22:36:00,61.4,60.5,29.87,SE,128,3.5,3.5,97,0.00,CLR,,0.92,WeatherDisplay:10.37,2013-05-07 02:36:00,
2013-05-06 22:41:00,61.5,60.6,29.87,East,84,0.0,0.0,97,0.00,CLR,,0.92,WeatherDisplay:10.37,2013-05-07 02:41:00,
2013-05-06 22:46:00,61.5,60.6,29.87,East,99,0.0,0.0,97,0.00,CLR,,0.92,WeatherDisplay:10.37,2013-05-07 02:46:00,
2013-05-06 22:51:00,61.5,60.6,29.87,ESE,121,0.0,0.0,97,0.00,CLR,,0.92,WeatherDisplay:10.37,2013-05-07 02:51:00,
2013-05-06 22:56:00,61.5,60.6,29.87,East,98,1.1,1.1,97,0.00,CLR,,0.92,WeatherDisplay:10.37,2013-05-07 02:56:00,
2013-05-06 23:01:00,61.4,60.5,29.87,WSW,246,0.0,0.2,97,0.00,CLR,,0.92,WeatherDisplay:10.37,2013-05-07 03:01:00,
2013-05-06 23:06:00,61.3,60.4,29.87,East,99,0.0,0.0,97,0.00,CLR,,0.92,WeatherDisplay:10.37,2013-05-07 03:06:00,
2013-05-06 23:11:00,61.3,60.4,29.87,ESE,109,0.0,0.0,97,0.00,CLR,,0.92,WeatherDisplay:10.37,2013-05-07 03:11:00,
2013-05-06 23:16:00,61.3,60.4,29.87,ESE,117,0.0,0.0,97,0.00,CLR,,0.92,WeatherDisplay:10.37,2013-05-07 03:16:00,
2013-05-06 23:21:00,61.2,60.3,29.87,NNE,21,0.0,0.0,97,0.00,CLR,,0.92,WeatherDisplay:10.37,2013-05-07 03:21:00,
2013-05-06 23:26:00,61.2,60.3,29.87,East,86,1.1,1.1,97,0.00,CLR,,0.92,WeatherDisplay:10.37,2013-05-07 03:26:00,
2013-05-06 23:31:00,61.0,60.1,29.87,NE,53,0.0,0.0,97,0.00,CLR,,0.92,WeatherDisplay:10.37,2013-05-07 03:31:00,
2013-05-06 23:36:00,60.9,60.0,29.86,SE,134,0.0,0.0,97,0.00,CLR,,0.92,WeatherDisplay:10.37,2013-05-07 03:36:00,
2013-05-06 23:41:00,60.9,60.0,29.86,SE,128,1.1,1.1,97,0.00,CLR,,0.92,WeatherDisplay:10.37,2013-05-07 03:41:00,
2013-05-06 23:46:00,60.8,59.9,29.86,East,92,1.1,1.1,97,0.00,CLR,,0.92,WeatherDisplay:10.37,2013-05-07 03:46:00,
2013-05-06 23:51:00,60.8,59.9,29.86,SE,126,1.1,0.0,97,0.00,CLR,,0.92,WeatherDisplay:10.37,2013-05-07 03:51:00,
2013-05-06 23:56:00,60.6,59.7,29.86,SE,125,0.0,0.0,97,0.00,CLR,,0.92,WeatherDisplay:10.37,2013-05-07 03:56:00,